sat.trackr.live / text

‹ back to catalog

STARLINK-35396

NORAD 65828 · 2025-221F

PAYLOAD ACTIVE UNKNOWN

§ Identity

Operator
Country
US
Launch date
2025-09-29
Launch site
AFWTR
Launch vehicle
Mass (kg)
RCS (m²)

Purposes: comms

External: N2YO · Heavens-Above · Gunter

§ Orbital elements

Epoch: 2026-05-25T03:45:15.062112Z

Period
93.85 min
Inclination
53.1584°
Eccentricity
0.0001201
Mean motion
15.34395671 rev/d
Perigee alt
461.9 km
Apogee alt
463.5 km
Semi-major
6,840.9 km
B*
2.6992e-4
RAAN
92.9617°
Arg perigee
73.0071°
Mean anomaly
287.1063°
Rev number
3,779

§ Raw data

STARLINK-353961 65828U 25221F   26145.15642433  .00008753  00000+0  26992-3 0  99902 65828  53.1584  92.9617 0001201  73.0071 287.1063 15.34395671 37790

JSON: /api/v1/satellites/65828 · /tle

For live sub-satellite position, see the globe view (requires WebGL).

§ Visibility from observer

Set your observer location to see the next 7 days of passes ≥ 10°. The values pass through the URL so the page stays shareable.

No JS? Fill the form by hand. The geolocation button needs JavaScript.